Findlay, OH

11:07 PM EDT on September 30, 2016 (GMT -0400)
Findlay

Weather History for KFDY - September, 2013

Change the Weather History Date:

Monday, September 16, 2013

  Actual Average Record
Temperature  
Mean Temperature 60 °F -  
Max Temperature 69 °F 71 °F 91 °F (1955)
Min Temperature 52 °F 54 °F 38 °F (1966)
Degree Days  
Heating Degree Days 5    
Growing Degree Days 10 (Base 50)    
Moisture  
Dew Point 52 °F    
Average Humidity 78    
Maximum Humidity 100    
Minimum Humidity 57    
Precipitation  
Precipitation 0.01 in - - ()
Sea Level Pressure  
Sea Level Pressure 30.24 in    
Wind  
Wind Speed 6 mph (NNE)    
Max Wind Speed 13 mph    
Max Gust Speed 24 mph    
Visibility 8 miles    
Events      
Averages and records for this station are not official NWS values.
T = Trace of Precipitation, MM = Missing Value Source: NWS Daily Summary

Daily Weather History Graph

Daily Weather History Graph

Search for Another Location

Airport or City:

Trip Planner

Search our weather history database for the weather conditions in past years. The results will help you decide how hot, cold, wet, or windy it might be!

Date:

Astronomy

Sep. 16, 2013 Rise Set
Actual Time 7:16 AM EDT 7:41 PM EDT
Civil Twilight 6:48 AM EDT 8:09 PM EDT
Nautical Twilight 6:16 AM EDT 8:41 PM EDT
Astronomical Twilight 5:43 AM EDT 9:14 PM EDT
Moon 5:50 PM EDT (9/16) 4:00 AM EDT (9/16)
Length of Visible Light 13h 20m
Length of Day
12h 25m
Waxing Gibbous, 90% of the Moon is Illuminated
Sep 16
Waxing Gibbous
Sep 19
Full
Sep 26
Last Quarter
Oct 4
New
Oct 11
First Quarter

Hourly Weather History & Observations

Time (EDT) Temp. Dew Point Humidity Pressure Visibility Wind Dir Wind Speed Gust Speed Precip Events Conditions
12:53 AM 57.0 °F 55.0 °F 93% 30.10 in 6.0 mi NE 3.5 mph 24.2 mph 0.01 in   Overcast
1:53 AM 57.0 °F 55.0 °F 93% 30.10 in 6.0 mi Calm Calm - N/A   Overcast
2:53 AM 57.9 °F 55.0 °F 90% 30.11 in 5.0 mi Calm Calm - N/A   Overcast
3:53 AM 57.0 °F 55.9 °F 96% 30.13 in 4.0 mi NW 4.6 mph - N/A   Overcast
4:53 AM 57.0 °F 55.0 °F 93% 30.14 in 6.0 mi NNW 5.8 mph - N/A   Overcast
5:50 AM 55.4 °F 55.4 °F 100% 30.17 in 4.0 mi NNW 3.5 mph - N/A   Overcast
5:53 AM 55.9 °F 55.0 °F 97% 30.16 in 4.0 mi NNW 5.8 mph - N/A   Overcast
6:53 AM 55.9 °F 53.1 °F 90% 30.18 in 7.0 mi North 4.6 mph - N/A   Overcast
7:53 AM 55.0 °F 52.0 °F 89% 30.21 in 7.0 mi NNW 4.6 mph - N/A   Partly Cloudy
8:03 AM 55.4 °F 51.8 °F 88% 30.22 in 6.0 mi North 8.1 mph - N/A   Mostly Cloudy
8:53 AM 54.0 °F 52.0 °F 93% 30.23 in 6.0 mi North 10.4 mph - N/A   Overcast
9:53 AM 57.9 °F 53.1 °F 84% 30.25 in 10.0 mi North 10.4 mph - N/A   Overcast
10:10 AM 60.8 °F 55.4 °F 82% 30.26 in 10.0 mi North 11.5 mph - N/A   Scattered Clouds
10:40 AM 60.8 °F 53.6 °F 77% 30.27 in 10.0 mi NNE 12.7 mph - N/A   Mostly Cloudy
10:53 AM 60.1 °F 53.1 °F 78% 30.26 in 10.0 mi NNE 10.4 mph - N/A   Overcast
11:53 AM 61.0 °F 53.1 °F 75% 30.27 in 10.0 mi NNE 10.4 mph - N/A   Overcast
12:21 PM 60.8 °F 51.8 °F 72% 30.29 in 10.0 mi NE 5.8 mph - N/A   Overcast
12:53 PM 63.0 °F 53.1 °F 70% 30.27 in 10.0 mi North 10.4 mph - N/A   Overcast
1:16 PM 62.6 °F 51.8 °F 68% 30.29 in 10.0 mi NNE 10.4 mph - N/A   Overcast
1:33 PM 62.6 °F 53.6 °F 72% 30.29 in 10.0 mi North 9.2 mph - N/A   Overcast
1:53 PM 64.0 °F 53.1 °F 67% 30.29 in 10.0 mi North 11.5 mph - N/A   Overcast
2:53 PM 66.9 °F 53.1 °F 61% 30.27 in 10.0 mi NNW 9.2 mph - N/A   Scattered Clouds
3:53 PM 66.9 °F 51.1 °F 57% 30.26 in 10.0 mi North 10.4 mph 17.3 mph N/A   Mostly Cloudy
4:53 PM 66.0 °F 51.1 °F 59% 30.26 in 10.0 mi NNE 9.2 mph - N/A   Scattered Clouds
5:53 PM 64.0 °F 48.9 °F 58% 30.27 in 10.0 mi NNE 10.4 mph - N/A   Mostly Cloudy
6:53 PM 62.1 °F 48.9 °F 62% 30.27 in 10.0 mi NE 9.2 mph - N/A   Scattered Clouds
7:53 PM 59.0 °F 48.9 °F 69% 30.29 in 10.0 mi NE 12.7 mph - N/A   Clear
8:53 PM 57.9 °F 46.9 °F 67% 30.30 in 10.0 mi NE 9.2 mph - N/A   Partly Cloudy
9:53 PM 55.9 °F 46.9 °F 72% 30.32 in 10.0 mi NE 8.1 mph - N/A   Clear
10:53 PM 54.0 °F 46.9 °F 77% 30.32 in 10.0 mi ENE 11.5 mph - N/A   Clear
11:53 PM 52.0 °F 45.0 °F 77% 30.33 in 10.0 mi ENE 6.9 mph - N/A   Clear